Regional Weather Roundup
Issued by NWS

Home | Current Version | Previous Version | Text Only | Print | Product List | Glossary On
Versions: 1 2 3 4 5 6 7 8 9 10 11 12 13 14 15 16 17 18 19 20 21 22 23 24 25 26 27 28
000
ASUS46 KPQR 281710
RWROR

OREGON REGIONAL WEATHER ROUNDUP
NATIONAL WEATHER SERVICE PORTLAND OR
1000 AM PDT SAT MAY 28 2016

NOTE: "FAIR" INDICATES FEW OR NO CLOUDS BELOW 12,000 FEET WITH
NO SIGNIFICANT WEATHER AND/OR OBSTRUCTIONS TO VISIBILITY.

ORZ001>013-281800-
NORTHWEST OREGON


CITY           SKY/WX    TMP DP  RH WIND       PRES   REMARKS
ASTORIA        CLOUDY    57  49  74 S10       30.10S
NEWPORT        MOSUNNY   55  46  71 W5        30.16F
PORTLAND       MOSUNNY   59  43  55 NE7       30.13F
VANCOUVER WA   SUNNY     56  45  66 S5        30.12F
SCAPPOOSE      CLOUDY    57  46  66 SE3       30.12F
HILLSBORO      PTSUNNY   57  42  57 VRB5      30.13F
AURORA         SUNNY     57  42  57 SW3       30.14S
MCMINNVILLE    SUNNY     57  45  64 CALM      30.14F
SALEM          SUNNY     58  44  60 CALM      30.12F
CORVALLIS        N/A     57  45  62 S3        30.15F
EUGENE         MOSUNNY   56  43  61 VRB3      30.13F
$$

ORZ021-028-281800-
SOUTHWEST OREGON


CITY           SKY/WX    TMP DP  RH WIND       PRES   REMARKS
NORTH BEND     SUNNY     57  48  72 W5        30.13F
BROOKINGS      SUNNY     67  45  45 VRB6      30.02F
ROSEBURG       SUNNY     57  43  59 CALM      30.12F
SEXTON SUMMIT  SUNNY     51  39  63 CALM      30.09S
MEDFORD        SUNNY     57  39  51 CALM      30.10F
$$

ORZ014>016-041-281800-
COLUMBIA GORGE


CITY           SKY/WX    TMP DP  RH WIND       PRES   REMARKS
TROUTDALE      SUNNY     58  44  60 CALM      30.13F
THE DALLES     SUNNY     62  38  40 VRB3      30.09F
$$

ORZ029>031-041-044-049-050-061>064-502-503-505>511-281800-
EASTERN OREGON


CITY           SKY/WX    TMP DP  RH WIND       PRES   REMARKS
REDMOND        SUNNY     55  31  39 SE6       30.10F
BEND           SUNNY     52  30  43 VRB3      30.10S
PRINEVILLE     SUNNY     54  34  47 CALM      30.11F
KLAMATH FALLS  SUNNY     54  30  40 E6        30.09F
LAKEVIEW       SUNNY     55  34  44 CALM      30.10F
HERMISTON      SUNNY     61  38  42 SW12G18   30.09F
PENDLETON      MOSUNNY   58  34  40 SW7G17    30.09F
JOHN DAY         N/A    N/A N/A N/A MISG        N/A
MEACHAM        MOSUNNY   50  31  48 VRB3      30.09F
LA GRANDE      MOSUNNY   54  30  40 E3        30.09F
BAKER CITY     SUNNY     52  32  46 CALM      30.10F
BURNS          SUNNY     51  32  48 SW7       30.12S
ROME             N/A     58  26  29 VRB3      30.09F
ONTARIO        SUNNY     60  32  34 CALM      30.10F
$$




USA.gov is the U.S. government's official web portal to all federal, state and local government web resources and services.